CAPE
121 222 795 835 692 257 138 64 97 164 198 253 302 486 499 371 298 434 590 708 803 757 529 320 34 15 16 1 41 291 700 910 1084 1325 1312 1419 1448 1228 980 1016 1117 1225 1260
262 317 752 855 823 518 208 105 133 214 221 186 226 302 377 389 398 458 567 635 685 670 450 194 11 8 6 0 0 67 305 691 923 1195 1233 1598 1487 1099 882 1035 989 1027 1088
161 318 644 756 900 847 464 274 260 311 362 272 247 302 411 398 372 439 483 759 824 701 544 118 4 1 1 0 0 35 167 389 689 856 958 872 1002 1032 944 902 901 1012 1153
167 301 537 753 932 1010 839 581 506 521 496 406 373 467 556 451 371 558 875 987 575 590 510 140 0 0 0 0 0 23 454 811 587 1041 770 1025 1030 1127 1065 1043 934 998 890
212 374 537 830 1020 1091 1025 927 815 780 633 560 586 644 614 530 418 967 989 588 404 659 379 116 0 0 0 0 0 0 515 771 896 912 825 833 872 1031 867 817 840 736 684
210 274 449 694 936 1108 1138 1097 1096 993 766 731 743 748 696 593 650 1152 763 510 708 527 312 48 0 0 0 0 0 0 467 696 651 715 819 897 656 922 767 525 419 440 460
238 200 350 639 886 1050 1190 1209 1257 1142 953 852 866 870 843 796 875 1005 675 597 635 447 175 3 0 0 0 0 0 15 352 486 384 403 520 556 663 906 754 472 256 169 150
292 192 371 724 819 1043 1197 1265 1291 1240 1103 986 1004 987 993 899 874 819 696 618 497 305 39 0 0 0 0 0 0 23 184 267 190 188 218 326 517 617 621 305 121 79 57
346 253 237 611 934 1011 1117 1234 1293 1303 1220 1137 1097 1092 1077 893 809 727 654 543 374 200 0 0 0 0 0 0 0 7 15 17 15 57 76 148 341 368 348 188 138 122 115
568 369 359 428 709 898 1110 1227 1029 1318 1264 1205 1175 1152 1073 899 770 629 517 428 275 108 0 0 0 0 0 0 0 0 0 0 0 0 1 10 37 40 92 101 23 16 11
793 584 425 445 401 618 858 1134 934 1337 1336 1308 1326 1256 1097 852 712 609 367 316 181 66 0 0 0 0 0 0 0 0 0 0 0 0 0 5 8 8 15 13 7 1 3
712 722 598 522 425 373 612 960 1193 1333 1417 1392 1357 1264 974 697 535 456 333 228 74 2 0 0 0 0 0 0 0 0 0 0 0 0 0 1 3 11 11 14 17 9 6
649 626 727 607 499 437 501 599 885 1174 1146 1166 1079 945 796 646 519 342 180 73 11 0 0 0 0 0 0 0 0 0 0 0 0 0 0 0 0 1 5 9 11 10 2
639 642 755 704 656 616 612 546 606 737 811 825 902 857 739 503 291 174 72 9 0 0 0 0 0 0 0 0 0 0 0 0 0 0 0 0 0 1 5 3 4 4 4
715 814 842 794 796 759 843 709 609 581 661 647 683 681 664 522 385 133 17 0 0 0 0 0 0 0 0 0 0 0 0 0 0 0 0 0 0 1 2 6 3 4 4
432 826 937 885 772 746 793 706 635 595 569 532 564 600 609 544 336 110 17 0 0 0 0 0 0 0 0 0 0 0 0 0 0 0 0 0 0 1 3 5 6 1 4
14 544 847 1003 794 797 700 647 527 458 515 567 563 510 459 380 222 65 37 4 0 0 0 0 0 0 0 0 0 0 0 0 0 0 0 0 0 0 0 5 7 13 3
0 111 840 1043 911 830 729 602 661 620 526 451 400 375 318 331 301 47 8 1 0 0 0 0 0 0 0 0 0 0 0 0 0 0 0 0 0 0 2 11 13 13 11
0 96 616 780 1006 1101 1016 853 810 804 721 701 654 591 580 475 402 283 97 44 0 0 0 0 0 0 0 0 0 0 0 0 0 0 0 0 0 0 0 7 11 15 13
293 518 633 664 729 772 921 1033 1085 1056 1029 923 943 946 891 649 389 309 240 86 0 0 0 0 0 0 0 0 0 0 0 0 0 0 0 0 0 0 0 0 1 4 18
0 2 73 480 702 639 29 4 2 37 306 492 574 689 769 725 430 293 271 81 0 0 0 0 0 0 0 0 0 0 0 0 0 0 0 0 0 0 0 0 0 0 0
0 0 0 0 0 0 0 0 0 0 0 0 0 0 44 6 7 76 135 245 14 2 2 1 2 0 0 0 0 0 0 0 0 0 0 0 0 0 0 0 0 0 0
0 0 0 0 0 0 0 0 0 0 0 0 0 0 0 0 0 0 0 0 0 7 2 1 2 2 2 0 0 0 0 0 0 0 2 1 0 0 0 0 0 0 0
0 0 0 0 0 0 0 0 0 0 0 0 0 0 0 0 0 0 0 0 0 0 0 0 1 1 0 1 0 0 0 0 0 0 1 2 1 0 0 0 0 0 0
0 0 0 0 0 0 0 0 0 0 0 0 0 0 0 0 0 0 0 0 0 0 0 0 1 0 1 1 0 0 0 0 0 0 0 1 1 1 1 0 0 0 0
0 0 0 0 0 0 0 0 0 0 0 0 0 0 0 0 0 0 0 0 0 0 0 0 0 14 5 1 0 0 0 0 0 0 0 1 1 2 1 0 0 0 0
CIN
-669 -676 -480 -423 -421 -470 -489 -501 -468 -425 -426 -395 -371 -338 -316 -324 -311 -273 -241 -218 -189 -185 -214 -222 -330 -362 -404 -157 -315 -138 -39 -14 -7 -1 -1 -0 -0 -3 -7 -7 -3 -1 -1
-573 -669 -496 -412 -399 -434 -485 -491 -447 -415 -392 -392 -375 -346 -331 -322 -305 -291 -241 -221 -206 -197 -233 -279 -372 -426 -499 -0 -0 -265 -120 -35 -13 -2 -2 -0 -0 -1 -6 -5 -5 -2 -1
-623 -665 -525 -425 -379 -382 -427 -434 -414 -388 -356 -369 -364 -349 -329 -314 -321 -295 -271 -195 -180 -186 -198 -283 -310 -60 -274 -0 -0 -340 -189 -117 -36 -20 -17 -18 -11 -6 -5 -4 -4 -2 -0
-652 -652 -550 -446 -381 -351 -356 -380 -366 -340 -333 -341 -340 -320 -290 -308 -322 -266 -211 -169 -220 -207 -198 -265 -0 -0 -0 -0 -0 -383 -101 -47 -53 -16 -26 -5 -8 -0 -0 -0 -1 -0 -0
-662 -622 -541 -435 -360 -320 -313 -317 -309 -295 -306 -303 -300 -285 -283 -301 -324 -218 -182 -255 -264 -200 -242 -293 -0 -0 -0 -0 -0 -24 -99 -42 -30 -22 -24 -16 -15 -0 -0 -0 -0 -1 -4
-620 -610 -507 -414 -341 -298 -276 -273 -258 -251 -269 -282 -277 -273 -270 -283 -269 -178 -232 -261 -208 -217 -257 -351 -0 -0 -0 -0 -0 -0 -133 -60 -42 -31 -16 -5 -19 -0 -0 -9 -13 -13 -15
-558 -564 -477 -417 -345 -294 -247 -240 -223 -218 -239 -258 -253 -239 -236 -225 -213 -191 -230 -221 -215 -233 -300 -116 -0 -0 -0 -0 -0 -366 -187 -124 -116 -73 -29 -10 -3 -0 -1 -15 -41 -65 -65
-469 -545 -441 -370 -340 -276 -235 -222 -210 -199 -213 -231 -208 -205 -205 -190 -176 -196 -198 -193 -192 -247 -336 -0 -0 -0 -0 -0 -0 -330 -242 -203 -192 -154 -116 -57 -20 -16 -18 -42 -72 -97 -117
-456 -450 -434 -349 -274 -247 -238 -222 -211 -193 -190 -201 -196 -172 -173 -196 -211 -224 -210 -232 -254 -322 -65 -0 -0 -0 -0 -0 -0 -325 -192 -316 -274 -205 -171 -126 -63 -33 -42 -79 -85 -81 -104
-394 -435 -395 -380 -299 -261 -223 -204 -254 -190 -181 -186 -178 -161 -172 -198 -203 -227 -243 -271 -289 -344 -0 -0 -0 -0 -0 -0 -0 -0 -0 -0 -0 -0 -0 -228 -159 -146 -111 -133 -154 -1 -2
-333 -367 -388 -362 -380 -316 -252 -198 -236 -164 -155 -149 -126 -126 -152 -191 -196 -207 -273 -282 -320 -395 -0 -0 -0 -0 -0 -0 -0 -0 -0 -0 -0 -0 -1 -1 -0 -0 -0 -5 -8 -2 -0
-292 -309 -333 -352 -364 -371 -277 -196 -151 -122 -104 -104 -98 -96 -132 -167 -198 -225 -269 -309 -435 -232 -0 -0 -0 -0 -0 -0 -0 -0 -0 -0 -0 -0 -0 -0 -0 -0 -0 -3 -0 -3 -0
-288 -290 -319 -329 -350 -346 -306 -267 -201 -150 -148 -131 -125 -129 -153 -208 -252 -292 -323 -425 -568 -0 -0 -0 -0 -0 -0 -0 -0 -0 -0 -0 -0 -0 -0 -0 -0 -0 -0 -2 -2 -3 -3
-259 -292 -308 -332 -310 -301 -282 -272 -244 -207 -177 -165 -159 -160 -164 -215 -269 -322 -376 -515 -0 -0 -0 -0 -0 -0 -0 -0 -0 -0 -0 -0 -0 -0 -0 -0 -0 -0 -0 -0 -0 -0 -0
-244 -278 -288 -307 -269 -255 -221 -218 -221 -207 -173 -167 -148 -148 -141 -190 -245 -366 -492 -0 -0 -0 -0 -0 -0 -0 -0 -0 -0 -0 -0 -0 -0 -0 -0 -0 -0 -0 -0 -1 -0 -0 -0
-282 -244 -263 -257 -255 -235 -194 -181 -181 -182 -185 -182 -175 -164 -154 -153 -216 -361 -513 -0 -0 -0 -0 -0 -0 -0 -0 -0 -0 -0 -0 -0 -0 -0 -0 -0 -0 -1 -0 -0 -0 -0 -0
-197 -269 -252 -247 -229 -192 -192 -196 -226 -236 -195 -177 -185 -178 -171 -166 -246 -376 -403 -496 -0 -0 -0 -0 -0 -0 -0 -0 -0 -0 -0 -0 -0 -0 -0 -0 -0 -0 -0 -0 -0 -0 -2
-0 -345 -299 -254 -228 -192 -186 -214 -188 -185 -204 -222 -219 -196 -188 -167 -179 -371 -434 -94 -0 -0 -0 -0 -0 -0 -0 -0 -0 -0 -0 -0 -0 -0 -0 -0 -0 -0 -1 -3 -1 -0 -0
-0 -391 -320 -289 -203 -151 -133 -131 -120 -102 -109 -104 -108 -123 -114 -141 -149 -194 -350 -401 -0 -0 -0 -0 -0 -0 -0 -0 -0 -0 -0 -0 -0 -0 -0 -0 -0 -0 -0 -10 -5 -1 -1
-373 -296 -267 -248 -227 -167 -89 -39 -28 -35 -32 -30 -17 -13 -14 -41 -84 -117 -179 -308 -0 -0 -0 -0 -0 -0 -0 -0 -0 -0 -0 -0 -0 -0 -0 -0 -0 -0 -0 -0 -2 -6 -0
-2 -430 -429 -214 -145 -141 -452 -338 -0 -388 -171 -76 -32 -10 -4 -11 -40 -89 -106 -263 -0 -0 -0 -0 -0 -0 -0 -0 -0 -0 -0 -0 -0 -0 -0 -0 -0 -0 -0 -0 -0 -0 -0
-0 -0 -0 -0 -0 -0 -0 -0 -0 -0 -0 -0 -0 -0 -193 -240 -223 -114 -91 -48 -76 -0 -0 -0 -0 -0 -0 -0 -0 -0 -0 -0 -0 -0 -0 -0 -0 -0 -0 -0 -0 -0 -0
-0 -0 -0 -0 -0 -0 -0 -0 -0 -0 -0 -0 -0 -0 -0 -0 -0 -0 -0 -0 -0 -0 -0 -0 -0 -0 -0 -0 -0 -0 -0 -0 -0 -0 -0 -0 -0 -0 -0 -0 -0 -0 -0
-0 -0 -0 -0 -0 -0 -0 -0 -0 -0 -0 -0 -0 -0 -0 -0 -0 -0 -0 -0 -0 -0 -0 -0 -0 -0 -0 -0 -0 -0 -0 -0 -0 -0 -0 -0 -0 -0 -0 -0 -0 -0 -0
-0 -0 -0 -0 -0 -0 -0 -0 -0 -0 -0 -0 -0 -0 -0 -0 -0 -0 -0 -0 -0 -0 -0 -0 -1 -0 -0 -0 -0 -0 -0 -0 -0 -0 -0 -0 -0 -0 -0 -0 -0 -0 -0
-0 -0 -0 -0 -0 -0 -0 -0 -0 -0 -0 -0 -0 -0 -0 -0 -0 -0 -0 -0 -0 -0 -0 -0 -0 -1 -3 -0 -0 -0 -0 -0 -0 -0 -0 -0 -0 -0 -0 -0 -0 -0 -0
Wind_Speed
12 14 14 14 13 13 13 14 15 15 15 16 17 18 19 19 19 19 19 19 19 19 18 18 18 18 19 19 20 19 19 20 20 20 19 19 18 19 19 20 20 20 20
12 12 11 11 11 11 11 12 12 12 12 13 15 15 16 17 18 18 18 17 18 18 18 18 17 17 18 18 19 19 18 18 18 19 19 20 18 19 19 19 20 19 19
11 10 8 8 8 8 8 9 10 11 10 11 12 13 14 15 16 16 17 16 17 17 17 17 17 17 17 17 17 17 17 16 17 18 18 18 19 19 19 18 18 18 18
9 8 6 5 5 5 6 7 8 9 8 9 10 11 12 13 14 14 15 15 16 16 17 16 16 16 16 16 16 16 16 15 15 16 16 17 17 17 17 17 17 17 17
9 7 5 3 2 2 4 5 6 7 7 7 8 9 10 11 12 13 13 13 14 15 15 15 15 15 16 15 15 15 15 15 15 15 15 16 16 16 16 16 16 16 15
8 7 5 4 2 0 3 4 5 6 6 6 7 8 8 9 10 11 11 12 12 14 14 14 14 14 15 15 14 14 14 14 14 14 14 14 14 14 15 14 15 15 15
8 6 5 4 2 2 4 4 5 6 6 5 6 7 7 7 8 8 9 10 11 12 13 13 13 13 14 14 13 12 13 13 13 13 14 14 13 13 13 13 13 13 14
8 8 6 4 4 5 5 5 6 7 6 5 4 5 5 5 6 7 7 8 9 11 11 12 12 12 13 13 12 12 11 12 12 12 13 13 13 12 13 12 12 12 12
9 9 7 5 5 7 7 7 7 8 7 6 5 5 4 4 5 5 5 6 7 9 9 10 10 10 12 11 11 10 10 11 11 11 12 13 13 12 12 12 11 11 11
8 8 7 6 5 6 6 8 7 7 8 6 6 6 4 3 3 3 4 5 6 8 8 9 10 10 12 11 9 8 8 9 9 10 10 11 11 12 12 12 11 11 11
6 6 6 6 5 4 4 5 5 6 6 6 4 4 2 1 0 1 2 4 6 7 7 9 10 10 12 11 9 6 6 6 7 8 9 9 10 11 11 11 10 11 11
3 3 4 5 5 5 2 1 1 3 3 3 3 4 3 3 3 3 3 5 6 6 7 8 9 10 10 9 7 5 5 5 6 7 8 8 9 10 10 9 10 10 10
2 1 2 4 5 5 4 2 1 2 3 4 4 4 4 4 5 5 7 8 8 6 6 7 8 10 8 6 4 3 2 2 4 5 5 6 7 8 8 9 9 9 9
2 2 1 2 3 3 4 3 2 2 4 5 5 6 7 8 9 10 10 10 9 8 8 8 9 10 9 7 4 2 2 2 2 3 4 5 5 5 6 6 7 8 8
3 2 2 3 3 2 3 5 4 3 4 6 8 8 8 10 10 11 14 15 15 12 13 12 12 12 11 9 6 5 5 5 4 4 4 4 3 3 3 4 5 6 6
2 2 2 1 3 4 6 9 8 7 7 8 9 9 8 10 12 13 15 16 18 18 17 17 15 14 13 14 11 9 8 7 7 6 5 4 3 3 2 2 3 4 4
2 1 2 3 5 5 5 6 6 9 11 11 10 9 9 11 13 13 14 15 16 17 19 19 19 18 16 15 15 13 11 10 9 8 7 6 5 5 6 5 2 2 3
8 3 4 5 5 4 4 6 8 10 9 9 11 12 12 13 15 16 17 17 18 18 18 19 21 23 22 21 20 18 17 15 13 11 10 9 8 7 5 5 5 3 2
10 6 5 4 3 4 7 9 10 11 12 13 14 15 16 16 17 20 21 23 23 22 23 23 23 22 24 24 24 23 21 20 18 16 14 12 11 9 8 6 6 6 5
12 8 7 6 4 6 9 12 14 16 17 16 17 18 20 22 23 24 25 25 26 28 28 27 27 26 26 25 25 27 27 25 23 22 20 16 14 12 10 9 9 9 9
11 9 9 8 9 8 10 12 15 19 20 21 22 22 23 24 26 28 30 30 28 29 30 30 31 31 31 25 26 29 29 29 28 27 24 21 18 16 13 12 11 10 12
9 10 11 11 10 11 11 13 16 19 21 24 26 26 27 29 32 33 35 34 32 33 34 33 33 35 34 32 34 31 35 34 32 30 28 27 24 21 18 15 14 12 12
8 9 10 11 11 12 14 15 19 22 25 29 30 30 30 32 35 37 38 38 39 37 37 36 36 35 38 35 35 33 36 41 35 34 34 31 30 27 23 20 17 16 15
9 9 10 12 13 15 18 22 26 30 33 34 34 34 36 36 38 39 40 41 41 41 43 44 41 42 40 40 39 40 39 32 39 40 38 34 32 31 28 24 22 19 16
10 12 13 13 16 19 22 25 29 33 36 37 39 41 41 41 42 42 43 42 43 43 44 44 45 45 45 47 46 43 42 44 36 37 45 35 36 36 31 28 25 23 18
11 12 15 18 21 24 27 29 32 36 40 44 46 49 48 47 46 45 45 45 46 47 48 47 48 47 49 50 49 49 50 46 44 44 43 33 40 38 32 31 29 26 20
Wind_Direction
88 108 109 105 102 96 93 93 90 84 81 79 78 76 74 73 74 75 73 70 67 62 55 48 41 43 41 46 50 48 50 54 55 56 49 48 59 47 48 46 47 47 49
78 103 103 102 103 101 98 97 94 88 82 81 80 76 74 72 73 72 71 68 66 62 55 51 49 44 40 45 47 50 53 50 54 59 50 37 57 48 44 47 52 53 52
79 90 92 99 103 103 100 100 99 96 89 85 82 79 76 72 70 71 72 67 63 59 56 53 48 42 35 40 42 48 49 49 53 47 51 49 50 51 50 51 49 48 49
69 75 75 88 99 104 105 106 105 104 97 91 86 79 75 73 70 72 71 66 57 57 53 52 47 43 35 34 31 32 28 39 55 49 48 45 46 49 46 46 46 43 42
45 42 33 35 38 85 116 120 116 113 106 97 89 83 80 77 75 75 71 63 55 56 52 51 49 46 43 41 33 31 32 38 41 46 47 47 44 47 43 41 39 38 36
39 21 12 4 343 279 144 138 129 123 118 110 102 96 85 79 77 75 71 63 54 51 50 53 53 51 47 51 33 28 37 37 36 38 39 39 40 44 40 39 32 30 30
37 35 57 66 55 125 151 151 139 135 133 127 118 108 91 82 78 71 65 59 49 42 42 39 42 49 47 56 43 47 46 45 39 34 36 35 35 42 38 30 29 28 27
36 25 40 78 97 126 148 153 148 144 144 141 130 119 100 86 75 69 59 49 39 33 30 27 29 37 36 51 43 52 51 50 41 39 36 36 38 39 33 27 23 22 24
40 37 53 70 105 127 144 155 152 151 152 150 150 137 117 103 102 85 61 45 37 31 30 24 23 26 22 47 35 48 50 52 49 44 39 37 41 36 32 27 25 20 20
31 39 53 69 93 119 137 154 159 160 159 162 161 155 149 129 109 86 58 30 16 11 13 7 4 4 354 16 36 54 43 42 44 40 38 37 44 40 31 30 25 16 9
12 42 57 65 79 101 116 152 166 170 172 172 177 182 203 293 34 74 22 355 355 2 5 360 355 351 346 354 9 31 17 28 31 28 31 44 39 35 31 29 27 20 8
356 45 58 65 79 84 51 34 231 202 210 215 235 262 277 286 294 304 313 322 330 338 344 345 344 338 342 349 1 8 360 12 13 19 17 27 27 22 19 23 22 17 15
354 34 65 78 81 76 54 27 341 270 239 251 267 271 267 268 272 282 297 305 312 317 321 328 330 328 329 334 339 340 354 359 354 354 6 9 8 12 16 9 11 15 12
275 336 38 93 94 79 42 41 20 316 285 274 263 261 273 284 287 289 290 294 297 302 301 307 314 317 315 312 290 264 254 266 299 324 337 349 3 15 21 28 27 21 21
239 264 177 139 134 61 33 15 17 355 316 298 287 282 281 282 279 286 293 294 296 297 296 295 298 302 300 297 282 254 239 240 257 286 306 320 341 5 32 25 16 33 29
249 227 232 217 298 318 329 332 335 336 329 316 307 298 286 288 291 289 290 290 293 293 293 294 288 286 285 287 280 268 248 244 242 248 266 282 293 311 335 7 22 21 36
355 90 199 257 289 298 320 335 339 327 318 314 312 309 300 299 294 289 286 285 287 288 287 290 289 287 280 278 274 267 258 249 246 242 247 256 264 277 293 297 310 353 12
328 322 322 298 283 291 307 324 328 328 326 320 315 311 306 301 301 297 292 286 287 286 284 286 286 285 282 276 275 270 267 263 258 257 259 259 257 263 262 267 285 295 316
330 341 338 326 305 301 309 318 323 326 326 324 321 316 311 304 299 296 293 292 291 287 284 282 280 279 281 277 275 269 264 261 258 259 257 260 265 265 262 248 267 284 293
331 339 348 347 352 330 324 323 322 323 324 325 323 319 317 313 308 301 296 294 291 288 285 283 277 275 275 269 274 274 272 265 260 259 257 258 257 261 264 267 272 281 284
348 355 0 8 5 358 338 331 328 327 328 328 326 322 319 315 313 309 305 299 291 286 282 279 278 278 276 269 271 273 273 270 265 260 258 254 253 252 254 257 265 268 279
347 2 4 6 6 1 351 342 338 336 332 329 330 328 324 320 317 314 310 304 297 289 285 281 277 276 274 263 270 272 270 269 264 260 255 251 246 247 249 250 253 257 268
329 345 357 0 360 356 346 342 334 329 327 324 324 324 323 320 317 315 311 308 304 300 288 282 276 274 273 264 255 265 268 267 267 263 256 254 253 252 249 246 247 251 258
319 339 346 344 343 337 334 326 321 319 317 318 319 318 317 316 314 312 310 307 304 300 296 291 285 275 272 269 266 260 266 268 266 269 259 252 250 249 247 247 246 245 244
317 324 335 341 336 331 327 325 320 318 317 318 317 315 315 314 312 310 308 306 303 301 298 294 288 282 276 271 266 260 255 264 266 270 261 253 254 250 249 246 245 243 242
317 326 329 328 326 326 326 326 324 322 320 319 318 316 314 313 311 309 306 303 301 298 296 294 292 286 279 274 269 266 261 257 263 262 268 252 249 248 245 246 243 243 238